Location: De Greiden
(52.9496°N, 5.9137°E)
Time: 23:41:31
(UTC+00:00)

Cosmos 2278 Rocket - Pass Details

Date: 24 January 2021
Orbit: 840 x 847 km, 71.0° (Epoch: 01 March)

Event Time Altitude Azimuth Distance (km) Brightness Sun altitude
Rises 17:22:38 0° 148° (SSE) 3,393 5.2 -11.3°
Reaches altitude 10° 17:26:24 10° 123° (ESE) 2,466 4.2 -11.8°
Enters shadow 17:28:39 13° 99° (E) 2,243 3.9 -12.2°
